Regional Weather Roundup
Issued by NWS

Home | Current Version | Previous Version | Text Only | Print | Product List | Glossary Off
Versions: 1 2 3 4 5 6 7 8 9 10 11 12 13 14 15 16 17 18 19 20 21 22 23 24 25 26 27 28 29 30 31 32 33 34 35 36 37 38 39 40 41 42 43 44 45 46 47 48 49 50

000
ASUS43 KIND 221109
RWRIN

WEATHER ROUNDUP FOR INDIANA
NATIONAL WEATHER SERVICE INDIANAPOLIS IN
700 AM EDT SUN OCT 22 2017

NOTE: "FAIR" INDICATES FEW OR NO CLOUDS BELOW 12,000 FEET WITH NO
SIGNIFICANT WEATHER AND/OR OBSTRUCTIONS TO VISIBILITY.

* - STATION DOES NOT REPORT WEATHER SUCH AS PRECIPITATION OR FOG.

+ - STATION NOT QUALITY CONTROLLED BY THE NATIONAL WEATHER SERVICE.
    USE DATA WITH CAUTION...ESPECIALLY DEWPOINT AND RELATIVE
    HUMIDITY OBSERVATIONS.

INZ001>003-010>013-019-020-221200-
NORTHWEST INDIANA

CITY           SKY/WX    TMP DP  RH WIND       PRES   REMARKS
GARY /AIRPORT/ MOCLDY    68  54  60 S12G23    29.98S
KNOX *+        CLOUDY    63  50  63 S15G22    30.02S
LA PORTE +     CLOUDY    63  51  67 S8        30.03R
MICHIGAN CITY+ CLOUDY    63  50  63 S9G17     30.01R
MONTICELLO +   CLEAR     61  50  67 SE3       30.04R
RENSSELAER +   CLOUDY    63  45  51 SE13      30.01S
VALPARAISO     CLOUDY    66  53  63 S9        30.02R

$$

LMZ046-743>745-221200-
SOUTHERN LAKE MICHIGAN

STATION/POSITION TIME  TEMP    WIND        PRES    WAVE
                       AIR SEA DIR/SP/G            HT
                 (UTC) (F)     (DEG/KT/KT) (MB)    (FT)
BURNS HARBOR     1040   67     180/ 17/ 24 1015.9R
MICHIGAN CITY    1040   65     160/ 12/ 14   N/A
5NW MICH CITY    1100   63 58  180/ 16/ 19   N/A     2

$$

INZ004-005-014>016-021>024-221200-
NORTH CENTRAL INDIANA

CITY           SKY/WX    TMP DP  RH WIND       PRES   REMARKS
GOSHEN         CLEAR     60  46  59 S10       30.07S
LOGANSPORT +   CLEAR     57  48  72 SE7       30.08R
PERU/GRISSOM   PTCLDY    58  49  72 S9        30.06F
SOUTH BEND     CLEAR     60  50  69 SE12      30.05R
WARSAW +       CLEAR     59  48  67 SE6       30.08R

$$

INZ006>009-017-018-025>027-221200-
NORTHEAST INDIANA

CITY           SKY/WX    TMP DP  RH WIND       PRES   REMARKS
AUBURN +       CLOUDY    54  45  71 CALM      30.11S
FORT WAYNE     CLOUDY    56  48  74 S9        30.11S
HUNTINGTON +   CLOUDY    58  48  69 S6        30.10S
KENDALLVILLE + PTCLDY    57  48  71 S9        30.10S

$$

INZ028-029-035-036-043>045-051>053-221200-
WEST CENTRAL INDIANA

CITY           SKY/WX    TMP DP  RH WIND       PRES   REMARKS
GREENCASTLE +  PTCLDY    57  50  77 S6        30.08R
LAFAYETTE      CLEAR     61  52  72 S7        30.04R
TERRE HAUTE    CLOUDY    64  54  69 S16G23    30.05R

$$

INZ030>032-037>040-046>048-054>057-064-065-221200-
CENTRAL INDIANA

CITY           SKY/WX    TMP DP  RH WIND       PRES   REMARKS
CP ATTERBURY + CLOUDY    54  48  82 SE7       30.12F
COLUMBUS       CLEAR     57  48  72 SE12      30.13
FRANKFORT +    PTCLDY    61  52  73 S6        30.08R
GREENWOOD *+   PTCLDY    59  51  75 SE7       30.11S
INDIANAPOLIS   PTCLDY    56  50  80 SE9       30.09S
-EAGLE CREEK   PTCLDY    58  49  72 VRB5      30.08S
KOKOMO +       PTCLDY    58  50  75 S10       30.08S
MT COMFORT *+  MOCLDY    57  54  88 S9        30.10F
SHELBYVILLE    PTCLDY    60  49  66 S14       30.10F
ZIONSVILLE +   CLOUDY    57  50  76 S10       30.09S

$$

INZ033-034-041-042-049-050-058-059-221200-
EAST CENTRAL INDIANA

CITY           SKY/WX    TMP DP  RH WIND       PRES   REMARKS
MUNCIE         CLOUDY    61  48  62 S9        30.11S
RICHMOND +     CLOUDY    52  46  82 S8        30.17R

$$

INZ060-061-067>069-081>083-085>088-221200-
SOUTHWEST INDIANA

CITY           SKY/WX    TMP DP  RH WIND       PRES   REMARKS
EVANSVILLE     PTCLDY    62  53  72 SE6       30.07S
HUNTINGBURG +  CLOUDY    61  53  75 SE8       30.10R
WASHINGTON +   CLOUDY    62  51  67 S12       30.07R

$$

INZ062-063-066-070>080-084-089>092-221200-
SOUTH CENTRAL AND SOUTHEAST INDIANA

CITY           SKY/WX    TMP DP  RH WIND       PRES   REMARKS
BEDFORD +      PTCLDY    59  50  72 SE7       30.10F
BLOOMINGTON    CLOUDY    57  49  74 S6        30.09S
MADISON *+     CLEAR     59  46  63 SE3       30.17S
NORTH VERNON + CLOUDY    57  48  72 SE6       30.15S
SEYMOUR +      CLOUDY    59  48  67 SE7       30.13S

$$





USA.gov is the U.S. government's official web portal to all federal, state and local government web resources and services.